Weather History for Medford, OR

Change the Weather History Date:

Wednesday, June 19, 2013

  Actual Average Record
Temperature  
Mean Temperature 59 °F 68 °F  
Max Temperature 66 °F 83 °F 101 °F (1945)
Min Temperature 52 °F 53 °F 38 °F (1929)
Degree Days  
Heating Degree Days 6 1  
Month to date heating degree days 24 44  
Since 1 June heating degree days 24 44  
Since 1 July heating degree days 4026 4241  
Cooling Degree Days 0 4  
Month to date cooling degree days 78 51  
Year to date cooling degree days 113 89  
Since 1 June cooling degree days 78 51  
Growing Degree Days 8 (Base 50)    
Moisture  
Dew Point 45 °F    
Average Humidity 66    
Maximum Humidity 83    
Minimum Humidity 48    
Precipitation  
Precipitation 0.13 in 0.02 in 0.75 in (1913)
Month to date precipitation 0.13 0.47  
Year to date precipitation 3.87 9.31  
Snow  
Snow 0.00 in 0.00 in - ()
Month to date snowfall 0.0 0.0  
Since 1 July snowfall 1.7 4.1  
Snow Depth 0.00 in    
Sea Level Pressure  
Sea Level Pressure 30.06 in    
Wind  
Wind Speed 5 mph (North)    
Max Wind Speed 17 mph    
Max Gust Speed 22 mph    
Visibility 9 miles    
Events Rain    
T = Trace of Precipitation, MM = Missing Value Source: NWS Daily Summary

Daily Weather History Graph

Daily Weather History Graph

Search for Another Location

Airport:

Trip Planner

Search our weather history database for the weather conditions in past years. The results will help you decide how hot, cold, wet, or windy it might be!

Date:

Astronomy

Jun. 19, 2013 Rise Set
Actual Time 5:34 AM PDT 8:51 PM PDT
Civil Twilight 4:59 AM PDT 9:26 PM PDT
Nautical Twilight 4:14 AM PDT 10:11 PM PDT
Astronomical Twilight 3:19 AM PDT 11:06 PM PDT
Moon 4:47 PM PDT (6/19) 2:26 AM PDT (6/19)
Length of Visible Light 16h 26m
Length of Day
15h 17m
Waxing Gibbous, 81% of the Moon is Illuminated
Jun 19
Waxing Gibbous
Jun 23
Full
Jun 29
Last Quarter
Jul 8
New
Jul 15
First Quarter

Hourly Weather History & Observations

Time (PDT) Temp. Dew Point Humidity Pressure Visibility Wind Dir Wind Speed Gust Speed Precip Events Conditions
12:53 AM 55.0 °F 41.0 °F 59% 30.01 in 10.0 mi Calm Calm - N/A   Overcast
1:53 AM 54.0 °F 41.0 °F 62% 30.00 in 10.0 mi WNW 6.9 mph - N/A   Overcast
2:53 AM 52.0 °F 44.1 °F 74% 30.01 in 10.0 mi Calm Calm - 0.00 in Rain Light Rain
3:53 AM 52.0 °F 44.1 °F 74% 30.01 in 10.0 mi Calm Calm - 0.00 in   Overcast
4:53 AM 53.1 °F 43.0 °F 69% 30.01 in 10.0 mi Calm Calm - N/A   Overcast
5:53 AM 53.1 °F 43.0 °F 69% 30.01 in 10.0 mi Calm Calm - N/A   Overcast
6:53 AM 53.1 °F 42.1 °F 66% 30.02 in 10.0 mi Calm Calm - N/A   Overcast
7:53 AM 54.0 °F 42.1 °F 64% 30.03 in 10.0 mi Calm Calm - 0.00 in Rain Light Rain
8:53 AM 55.9 °F 41.0 °F 57% 30.04 in 10.0 mi Calm Calm - N/A   Overcast
9:53 AM 57.0 °F 43.0 °F 59% 30.05 in 10.0 mi Calm Calm - 0.00 in   Overcast
10:42 AM 53.6 °F 46.4 °F 77% 30.06 in 2.0 mi Calm Calm - 0.06 in Rain Rain
10:46 AM 53.6 °F 48.2 °F 82% 30.06 in 4.0 mi East 3.5 mph - 0.06 in Rain Light Rain
10:53 AM 55.0 °F 48.9 °F 80% 30.06 in 10.0 mi East 4.6 mph - 0.06 in   Mostly Cloudy
11:53 AM 59.0 °F 46.0 °F 62% 30.05 in 10.0 mi North 6.9 mph - 0.00 in Rain Light Rain
12:53 PM 59.0 °F 51.1 °F 75% 30.06 in 10.0 mi NNW 6.9 mph - 0.05 in   Mostly Cloudy
1:53 PM 59.0 °F 48.0 °F 67% 30.06 in 6.0 mi NW 10.4 mph - 0.00 in Rain Light Rain
2:53 PM 62.1 °F 48.0 °F 60% 30.06 in 10.0 mi Variable 4.6 mph - 0.02 in   Mostly Cloudy
3:53 PM 64.0 °F 46.0 °F 52% 30.06 in 10.0 mi NNW 11.5 mph 16.1 mph N/A   Mostly Cloudy
4:53 PM 64.0 °F 44.1 °F 48% 30.07 in 10.0 mi NW 11.5 mph - N/A   Overcast
5:53 PM 63.0 °F 46.0 °F 54% 30.08 in 10.0 mi NE 16.1 mph - N/A   Overcast
6:53 PM 63.0 °F 46.9 °F 56% 30.09 in 10.0 mi North 6.9 mph - N/A   Mostly Cloudy
7:53 PM 59.0 °F 46.0 °F 62% 30.11 in 10.0 mi ENE 10.4 mph - N/A   Mostly Cloudy
8:53 PM 57.0 °F 45.0 °F 64% 30.12 in 10.0 mi NNE 6.9 mph - N/A   Clear
9:53 PM 54.0 °F 46.9 °F 77% 30.12 in 10.0 mi NNE 3.5 mph - N/A   Mostly Cloudy
10:53 PM 54.0 °F 48.9 °F 83% 30.13 in 10.0 mi North 5.8 mph - N/A   Mostly Cloudy
11:53 PM 54.0 °F 45.0 °F 72% 30.13 in 10.0 mi Calm Calm - N/A   Partly Cloudy